EA1ZE Weather Reports


time (UTC)temp
C
wind
direction
speed
KPH
gust
KPH
rain 1hr
cm
rain 24hr
cm
rain mn
cm
humidity
%
barometer
mb
20260504024510 11 209 0.0 3.2 0.00 0.00 0.00 86 1011.4
20260504023004 11 209 3.2 9.7 0.00 0.00 0.00 86 1011.5
20260504021501 11 163 4.8 9.7 0.00 0.00 0.00 85 1011.5
20260504014558 11 172 4.8 11.3 0.00 0.00 0.00 83 1011.4
20260504013057 11 184 1.6 6.4 0.00 0.00 0.00 83 1011.4
20260504011556 11 188 0.0 6.4 0.00 0.00 0.00 83 1011.4
20260504010058 11 188 0.0 4.8 0.00 0.00 0.00 82 1011.5
20260504004553 11 188 3.2 8.0 0.00 0.00 0.00 82 1011.8
20260504003052 11 188 4.8 9.7 0.00 0.00 0.00 80 1011.8
20260504001607 12 207 6.4 9.7 0.00 0.00 0.00 80 1011.8
20260504000048 12 271 3.2 9.7 0.00 0.00 0.00 79 1011.6
20260503234545 12 207 6.4 14.5 0.00 0.00 0.00 78 1011.7
20260503233042 12 255 3.2 11.3 0.00 0.00 0.00 77 1011.7
20260503231542 12 262 3.2 12.9 0.00 0.00 0.00 76 1011.7
20260503230045 12 273 1.6 9.7 0.00 0.00 0.00 75 1011.7
20260503224539 12 227 3.2 11.3 0.00 0.00 0.00 74 1011.9
20260503223041 12 234 3.2 11.3 0.00 0.00 0.00 74 1011.9
20260503221541 12 219 4.8 11.3 0.00 0.00 0.00 74 1012.0
20260503220036 12 186 6.4 12.9 0.00 0.00 0.00 73 1012.1
20260503214532 13 215 4.8 9.7 0.00 0.00 0.00 72 1011.9
20260503213038 13 228 0.0 4.8 0.00 0.00 0.00 72 1011.6
20260503211536 13 276 1.6 4.8 0.00 0.00 0.00 73 1011.6
20260503210031 13 283 0.0 4.8 0.00 0.00 0.00 74 1011.4
20260503204531 13 355 3.2 12.9 0.00 0.00 0.00 75 1011.4
20260503203034 13 235 3.2 8.0 0.00 0.00 0.00 75 1011.4
20260503201531 13 273 4.8 11.3 0.00 0.00 0.00 73 1011.2
20260503200033 13 271 4.8 12.9 0.00 0.00 0.00 70 1011.0
20260503194531 14 333 8.0 16.1 0.00 0.00 0.00 68 1010.8
20260503193029 15 297 6.4 19.3 0.00 0.00 0.00 63 1010.4
20260503191528 16 226 1.6 9.7 0.00 0.00 0.00 55 1010.1
20260503190035 17 219 4.8 14.5 0.00 0.03 0.00 53 1009.7
20260503184528 17 269 4.8 19.3 0.00 0.03 0.00 53 1009.4
20260503183035 17 247 4.8 17.7 0.00 0.03 0.00 50 1009.2
20260503181543 18 232 8.0 19.3 0.00 0.03 0.00 49 1009.2
20260503180025 18 234 6.4 22.5 0.00 0.05 0.00 50 1009.1
20260503174523 18 227 11.3 25.7 0.00 0.05 0.00 50 1009.1
20260503173041 18 220 3.2 14.5 0.00 0.05 0.00 58 1009.2
20260503171522 17 190 6.4 16.1 0.00 0.05 0.00 56 1009.2
20260503130153 16 277 8.0 14.5 0.00 0.25 0.00 68 1011.1
20260503120124 16 158 1.6 9.7 0.00 0.28 0.00 70 1011.7
20260503110124 16 172 11.3 19.3 0.00 0.48 0.00 70 1012.4
20260503100106 15 179 6.4 14.5 0.00 0.61 0.00 75 1012.7
20260503081541 11 163 9.7 14.5 0.00 0.61 0.00 89 1013.1
20260503080140 11 179 1.6 8.0 0.00 0.61 0.00 88 1013.1
20260503071538 11 194 4.8 11.3 0.00 0.61 0.00 86 1012.8
20260503054533 11 180 0.0 0.0 0.00 0.61 0.00 87 1012.5
20260503053039 11 180 0.0 0.0 0.00 0.61 0.00 87 1012.5
20260503051531 11 180 0.0 0.0 0.00 0.61 0.00 86 1012.7
20260503050033 11 180 0.0 0.0 0.00 0.61 0.00 86 1012.7
20260503044601 11 180 0.0 0.0 0.00 0.61 0.00 85 1012.7
20260503043028 11 180 0.0 0.0 0.00 0.61 0.00 85 1012.8
20260503041529 11 180 0.0 0.0 0.00 0.61 0.00 85 1012.7
20260503040028 11 180 0.0 0.0 0.00 0.61 0.00 85 1012.9
20260503034529 11 180 0.0 0.0 0.00 0.61 0.00 86 1012.9
20260503033025 11 180 0.0 0.0 0.00 0.61 0.00 86 1013.0
20260503031523 11 180 0.0 0.0 0.00 0.61 0.00 85 1013.0
20260503030022 11 180 0.0 1.6 0.00 0.61 0.00 86 1013.1
20260503024521 11 180 0.0 6.4 0.00 0.61 0.00 86 1013.3